Regional Weather Roundup
Issued by NWS

Home | Current Version | Previous Version | Graphics & Text | Print | Product List | Glossary Off
Versions: 1 2 3 4 5 6 7 8 9 10 11 12 13 14 15 16 17 18 19 20 21 22 23 24 25 26 27 28 29 30 31 32 33 34 35 36 37 38 39 40 41 42 43 44 45 46 47 48 49 50

000
ASUS43 KLSX 011207
RWRMO

WEATHER SUMMARY FOR MISSOURI
NATIONAL WEATHER SERVICE SPRINGFIELD MO
600 AM CST SUN MAR 01 2015

NOTE: "FAIR" INDICATES FEW OR NO CLOUDS BELOW 12,000 FEET WITH NO
       SIGNIFICANT WEATHER AND/OR OBSTRUCTIONS TO VISIBILITY.
       CURRENT SKY AND/OR WEATHER CONDITIONS ARE NOT AVAILABLE FOR
       CHILLICOTHE AND FARMINGTON.

MOZ001>031-035>038-043-044-053-054-011300-
...NORTHERN AND WESTERN MISSOURI...

CITY           SKY/WX    TMP DP  RH WIND       PRES   REMARKS
KANSAS CTY INT CLOUDY    22  19  89 CALM      30.35S
6HR MIN TEMP:  22; 6HR MAX TEMP:  22; 6HR PCP: TRACE;

KANSAS C DTWN  CLOUDY    24  20  84 CALM      30.37R
6HR MIN TEMP:  24; 6HR MAX TEMP:  25; 6HR PCP: TRACE;

LEE`S SUMMIT   CLOUDY    22  19  89 N5        30.35R WCI  16
6HR MIN TEMP:  22; 6HR MAX TEMP:  22; 6HR PCP:  0.01;

ST JOSEPH      LGT SNOW  23  20  88 CALM      30.38S FOG
6HR MIN TEMP:  22; 6HR MAX TEMP:  23; 6HR PCP: TRACE;

CHILLICOTHE      N/A     22  19  89 CALM      30.38R
6HR MIN TEMP:  22; 6HR MAX TEMP:  23; 6HR PCP:  0.04;

KIRKSVILLE     LGT SNOW  20  19  96 CALM      30.35F FOG
6HR MIN TEMP:  20; 6HR MAX TEMP:  21; 6HR PCP:  0.05;


$$
MOZ066>068-077>081-088>096-101>105-011300-
...SOUTHWEST MISSOURI...

CITY           SKY/WX    TMP DP  RH WIND       PRES   REMARKS
SPRINGFIELD    CLOUDY    27  26  96 CALM      30.32R FOG
6HR MIN TEMP:  27; 6HR MAX TEMP:  27; 6HR PCP: TRACE;

JOPLIN         FOG       27  26  96 NW6       30.35R VSB 1/2 WCI  20
6HR MIN TEMP:  27; 6HR MAX TEMP:  28;


$$
MOZ032>034-039>042-045>050-055>058-069>072-011300-
...CENTRAL MISSOURI...

CITY           SKY/WX    TMP DP  RH WIND       PRES   REMARKS
COLUMBIA       CLOUDY    24  22  91 CALM      30.34S FOG
6HR MIN TEMP:  23; 6HR MAX TEMP:  24; 6HR PCP:  0.04;

JEFFERSON CITY CLOUDY    25  23  92 CALM      30.37S FOG
6HR MIN TEMP:  24; 6HR MAX TEMP:  25; 6HR PCP: TRACE;

ROLLA          CLOUDY    25  24  96 CALM      30.32S FOG
6HR MIN TEMP:  24; 6HR MAX TEMP:  26; 6HR PCP: TRACE;

SEDALIA        CLOUDY    24  21  88 CALM      30.35S FOG
6HR MIN TEMP:  24; 6HR MAX TEMP:  24; 6HR PCP:  0.01;

WARRENSBURG    CLOUDY    23  21  93 CALM      30.37R
OSAGE BEACH    CLOUDY    27  23  86 CALM      30.34F

$$
MOZ051-052-059>065-011300-
...EAST CENTRAL MISSOURI...

CITY           SKY/WX    TMP DP  RH WIND       PRES   REMARKS
ST LOUIS INTL  FRZ DRZL  27  24  89 CALM      30.37R FOG
6HR MIN TEMP:  25; 6HR MAX TEMP:  27; 6HR PCP:  0.03;

SPIRIT OF STL  CLOUDY    26  25  96 CALM      30.37R FOG
6HR MIN TEMP:  25; 6HR MAX TEMP:  26; 6HR PCP:  0.01;

ST CHARLES     CLOUDY    25  24  96 CALM      30.38R FOG
6HR MIN TEMP:  24; 6HR MAX TEMP:  25; 6HR PCP: TRACE;


$$
MOZ072>076-082>087-097>100-106>115-011300-
...SOUTH CENTRAL AND SOUTHEAST MISSOURI...

CITY           SKY/WX    TMP DP  RH WIND       PRES   REMARKS
CAPE GIRARDEAU LGT RAIN  33  28  81 E5        30.35R WCI  29
6HR MIN TEMP:  31; 6HR MAX TEMP:  33; 6HR PCP:  0.09;

FARMINGTON     CLOUDY    28  27  93 CALM      30.37S
6HR MIN TEMP:  27; 6HR MAX TEMP:  28; 6HR PCP:  0.17;

POPLAR BLUFF   FRZ RAIN  31  27  85 S7        30.36R FOG     WCI  24
6HR MIN TEMP:  30; 6HR MAX TEMP:  31; 6HR PCP:  0.05;

WEST PLAINS    FRZ RAIN  30  27  88 CALM      30.33S FOG
6HR MIN TEMP:  26; 6HR MAX TEMP:  30; 6HR PCP:  0.14;


$$


USA.gov is the U.S. government's official web portal to all federal, state and local government web resources and services.